Weather History for Sioux City, IA

Change the Weather History Date:

Monday, March 24, 2014

  Actual Average Record
Temperature  
Mean Temperature 32 °F 40 °F  
Max Temperature 43 °F 52 °F 82 °F (1967)
Min Temperature 21 °F 28 °F -4 °F (1952)
Degree Days  
Heating Degree Days 33 25  
Month to date heating degree days 804 721  
Since 1 July heating degree days 6408 6015  
Cooling Degree Days 0 0  
Month to date cooling degree days 0 0  
Year to date cooling degree days 0 0  
Moisture  
Dew Point 16 °F    
Average Humidity 59    
Maximum Humidity 85    
Minimum Humidity 33    
Precipitation  
Precipitation T in 0.07 in 1.01 in (1937)
Month to date precipitation 0.31 1.40  
Year to date precipitation 1.08 2.69  
Snow  
Snow T in 0.20 in 2.80 in (1975)
Month to date snowfall 4.6 5.4  
Since 1 July snowfall 18.4 31.9  
Snow Depth T in    
Sea Level Pressure  
Sea Level Pressure 30.28 in    
Wind  
Wind Speed 11 mph (NNW)    
Max Wind Speed 30 mph    
Max Gust Speed 36 mph    
Visibility 9 miles    
Events Snow    
T = Trace of Precipitation, MM = Missing Value Source: NWS Daily Summary

Daily Weather History Graph

Daily Weather History Graph

Search for Another Location

Airport:

Trip Planner

Search our weather history database for the weather conditions in past years. The results will help you decide how hot, cold, wet, or windy it might be!

Date:

Astronomy

Mar. 24, 2014 Rise Set
Actual Time 7:21 AM CDT 7:42 PM CDT
Civil Twilight 6:53 AM CDT 8:10 PM CDT
Nautical Twilight 6:20 AM CDT 8:43 PM CDT
Astronomical Twilight 5:46 AM CDT 9:17 PM CDT
Moon 2:59 AM CDT (3/24) 1:02 PM CDT (3/24)
Length of Visible Light 13h 16m
Length of Day
12h 20m
Last Quarter, 43% of the Moon is Illuminated
Mar 24
Last Quarter
Mar 30
New
Apr 7
First Quarter
Apr 15
Full
Apr 22
Last Quarter

Hourly Weather History & Observations

Time (CDT) Temp. Windchill Dew Point Humidity Pressure Visibility Wind Dir Wind Speed Gust Speed Precip Events Conditions
12:52 AM 30.9 °F 25.2 °F 12.0 °F 46% 30.31 in 10.0 mi ESE 5.8 mph - N/A   Overcast
1:52 AM 30.9 °F 24.3 °F 12.9 °F 47% 30.32 in 10.0 mi East 6.9 mph - N/A   Overcast
2:52 AM 30.9 °F 22.8 °F 14.0 °F 50% 30.32 in 10.0 mi East 9.2 mph - N/A   Overcast
3:52 AM 30.0 °F 21.1 °F 14.0 °F 51% 30.30 in 10.0 mi East 10.4 mph - N/A   Overcast
4:52 AM 30.0 °F 20.5 °F 12.9 °F 49% 30.28 in 10.0 mi ESE 11.5 mph - N/A   Overcast
5:52 AM 30.0 °F 21.7 °F 12.0 °F 47% 30.28 in 10.0 mi SE 9.2 mph - N/A   Overcast
6:52 AM 28.9 °F 21.1 °F 12.9 °F 51% 30.28 in 10.0 mi SE 8.1 mph - N/A   Overcast
7:52 AM 28.9 °F 22.8 °F 12.9 °F 51% 30.29 in 10.0 mi ESE 5.8 mph - N/A   Overcast
8:52 AM 30.0 °F 25.2 °F 12.9 °F 49% 30.29 in 10.0 mi SSE 4.6 mph - N/A   Overcast
9:52 AM 32.0 °F 26.4 °F 12.0 °F 44% 30.30 in 10.0 mi WSW 5.8 mph - N/A   Overcast
10:52 AM 35.1 °F 29.3 °F 12.9 °F 40% 30.31 in 10.0 mi West 6.9 mph - N/A   Overcast
11:52 AM 39.9 °F 32.1 °F 17.1 °F 40% 30.29 in 10.0 mi North 13.8 mph 18.4 mph N/A   Clear
12:52 PM 42.1 °F 34.2 °F 17.1 °F 37% 30.28 in 10.0 mi North 16.1 mph - N/A   Scattered Clouds
1:52 PM 42.1 °F 34.2 °F 16.0 °F 35% 30.27 in 10.0 mi NW 16.1 mph - N/A   Mostly Cloudy
2:52 PM 39.9 °F 30.2 °F 21.0 °F 47% 30.25 in 10.0 mi NNW 20.7 mph 28.8 mph N/A   Overcast
3:52 PM 37.0 °F 25.6 °F 19.9 °F 50% 30.27 in 10.0 mi NW 24.2 mph 32.2 mph N/A   Mostly Cloudy
4:52 PM 37.0 °F 27.7 °F 21.0 °F 52% 30.27 in 10.0 mi NW 16.1 mph 25.3 mph N/A   Overcast
5:52 PM 36.0 °F 25.6 °F 15.1 °F 43% 30.27 in 10.0 mi NW 18.4 mph 27.6 mph 0.00 in   Overcast
6:52 PM 36.0 °F 26.0 °F 12.9 °F 39% 30.26 in 10.0 mi NW 17.3 mph - N/A   Mostly Cloudy
7:52 PM 33.1 °F 23.0 °F 12.9 °F 43% 30.26 in 10.0 mi NNW 15.0 mph - N/A   Partly Cloudy
8:52 PM 28.0 °F 20.8 °F 15.1 °F 58% 30.27 in 10.0 mi NNW 6.9 mph - N/A   Scattered Clouds
9:52 PM 24.1 °F 19.7 °F 12.0 °F 60% 30.27 in 10.0 mi WNW 3.5 mph - N/A   Mostly Cloudy
10:52 PM 28.0 °F 20.0 °F 16.0 °F 61% 30.28 in 10.0 mi NNW 8.1 mph - N/A   Overcast
11:19 PM 28.9 °F 17.3 °F 21.9 °F 75% 30.26 in 2.5 mi NNW 16.1 mph - 0.00 in Snow Light Snow
11:29 PM 28.0 °F 17.0 °F 24.1 °F 85% 30.26 in 1.5 mi NNW 13.8 mph - 0.00 in Snow Light Snow
11:40 PM 27.0 °F 18.7 °F 24.1 °F 89% 30.26 in 3.0 mi NW 8.1 mph - 0.00 in Snow Light Snow
11:52 PM 28.0 °F 18.1 °F 24.1 °F 85% 30.29 in 9.0 mi NW 11.5 mph - 0.00 in   Overcast
11:59 PM 28.0 °F 19.3 °F 24.1 °F 85% 30.25 in 10.0 mi NW 9.2 mph - N/A   Overcast